When you browse on this site, cookies collect data to enhance your experience and personalize the content and advertising you see.
Visit our Privacy Policy to learn more. By continuing to use the site, you agree to this use of cookies and data.
  • In Lithuania
  • List of Countries
  • For 7 days
  • Water Temperature
  • Weather Map
  • Weather Widgets
  • user-avatar
    Login

    Hourly Weather Kamloops

    Today, 26 May, Tuesday

    Time Temperature Precipitation Wind Pressure Humidity
    00:00 +10°C° 0 mm 1 mps 704 mmHg 92%
    01:00 +10°C° 0 mm 1 mps 704 mmHg 93%
    02:00 +10°C° 0.1 mm 1 mps 704 mmHg 92%
    03:00 +10°C° 0.1 mm 1 mps 704 mmHg 92%
    04:00 +10°C° 0.1 mm 1 mps 704 mmHg 92%
    05:00 +10°C° 0.1 mm 1 mps 704 mmHg 90%
    06:00 +11°C° 0.1 mm 1 mps 704 mmHg 88%
    07:00 +11°C° 0.1 mm 1 mps 705 mmHg 87%
    08:00 +10°C° 0.1 mm 2 mps 705 mmHg 84%
    09:00 +12°C° 0.1 mm 2 mps 705 mmHg 81%
    10:00 +12°C° 0.1 mm 2 mps 705 mmHg 78%
    11:00 +14°C° 0 mm 2 mps 705 mmHg 66%
    12:00 +16°C° 0 mm 3 mps 705 mmHg 54%
    13:00 +18°C° 0 mm 3 mps 706 mmHg 42%
    14:00 +18°C° 0 mm 3 mps 705 mmHg 41%
    15:00 +18°C° 0 mm 2 mps 705 mmHg 39%
    16:00 +18°C° 0 mm 2 mps 705 mmHg 38%
    17:00 +17°C° 0 mm 2 mps 705 mmHg 43%
    18:00 +16°C° 0 mm 2 mps 705 mmHg 49%
    19:00 +15°C° 0 mm 1 mps 706 mmHg 54%
    20:00 +13°C° 0 mm 1 mps 706 mmHg 57%
    21:00 +12°C° 0 mm 1 mps 706 mmHg 60%
    22:00 +10°C° 0 mm 1 mps 707 mmHg 63%
    23:00 +9°C° 0 mm 1 mps 707 mmHg 65%

    Tomorrow, 27 May, Wednesday

    Time Temperature Precipitation Wind Pressure Humidity
    00:00 +9°C° 0 mm 1 mps 707 mmHg 67%
    01:00 +8°C° 0 mm 1 mps 708 mmHg 69%
    02:00 +8°C° 0 mm 1 mps 708 mmHg 71%
    03:00 +6°C° 0 mm 0 mps 708 mmHg 74%
    04:00 +6°C° 0 mm 0 mps 708 mmHg 76%
    05:00 +8°C° 0 mm 0 mps 708 mmHg 69%
    06:00 +11°C° 0 mm 0 mps 708 mmHg 61%
    07:00 +13°C° 0 mm 0 mps 709 mmHg 53%
    08:00 +15°C° 0 mm 0 mps 709 mmHg 47%
    09:00 +19°C° 0 mm 1 mps 709 mmHg 42%
    10:00 +21°C° 0 mm 1 mps 709 mmHg 36%
    11:00 +22°C° 0 mm 1 mps 709 mmHg 34%
    12:00 +23°C° 0 mm 1 mps 709 mmHg 31%
    13:00 +24°C° 0 mm 1 mps 709 mmHg 29%
    14:00 +24°C° 0 mm 1 mps 708 mmHg 29%
    15:00 +24°C° 0 mm 1 mps 708 mmHg 29%
    16:00 +23°C° 0 mm 1 mps 708 mmHg 29%
    17:00 +22°C° 0 mm 1 mps 708 mmHg 35%
    18:00 +20°C° 0 mm 1 mps 708 mmHg 42%
    19:00 +18°C° 0 mm 1 mps 708 mmHg 49%
    20:00 +16°C° 0 mm 1 mps 708 mmHg 51%
    21:00 +14°C° 0 mm 1 mps 708 mmHg 52%
    22:00 +12°C° 0 mm 1 mps 708 mmHg 54%
    23:00 +12°C° 0 mm 1 mps 708 mmHg 55%

    Day after tomorrow, 28 May, Thursday

    Time Temperature Precipitation Wind Pressure Humidity
    00:00 +12°C° 0 mm 1 mps 708 mmHg 57%
    01:00 +12°C° 0 mm 1 mps 708 mmHg 58%
    02:00 +12°C° 0 mm 1 mps 707 mmHg 59%
    03:00 +11°C° 0 mm 1 mps 707 mmHg 61%
    04:00 +11°C° 0 mm 1 mps 707 mmHg 62%
    05:00 +12°C° 0 mm 0 mps 707 mmHg 58%
    06:00 +13°C° 0 mm 0 mps 708 mmHg 53%
    07:00 +15°C° 0 mm 0 mps 708 mmHg 49%
    08:00 +19°C° 0 mm 1 mps 708 mmHg 44%
    09:00 +21°C° 0 mm 1 mps 708 mmHg 39%
    10:00 +23°C° 0 mm 1 mps 708 mmHg 34%
    11:00 +24°C° 0 mm 1 mps 708 mmHg 33%
    12:00 +25°C° 0 mm 1 mps 707 mmHg 32%
    13:00 +26°C° 0 mm 1 mps 707 mmHg 31%
    14:00 +25°C° 0 mm 2 mps 707 mmHg 35%
    15:00 +24°C° 0 mm 2 mps 707 mmHg 38%
    16:00 +23°C° 0 mm 2 mps 707 mmHg 42%
    17:00 +21°C° 0 mm 2 mps 707 mmHg 48%
    18:00 +21°C° 0 mm 1 mps 707 mmHg 55%
    19:00 +19°C° 0 mm 1 mps 707 mmHg 61%
    20:00 +18°C° 0 mm 1 mps 706 mmHg 66%
    21:00 +15°C° 0 mm 1 mps 706 mmHg 70%
    22:00 +13°C° 0 mm 1 mps 706 mmHg 75%
    23:00 +13°C° 0 mm 1 mps 706 mmHg 77%

    29 May, Friday

    Time Temperature Precipitation Wind Pressure Humidity
    00:00 +12°C° 0 mm 1 mps 706 mmHg 79%
    01:00 +12°C° 0 mm 1 mps 706 mmHg 81%
    02:00 +12°C° 0 mm 1 mps 706 mmHg 83%
    03:00 +11°C° 0 mm 1 mps 706 mmHg 84%
    04:00 +11°C° 0 mm 1 mps 706 mmHg 85%
    05:00 +12°C° 0 mm 0 mps 706 mmHg 79%
    06:00 +14°C° 0 mm 0 mps 706 mmHg 72%
    07:00 +16°C° 0 mm 0 mps 706 mmHg 65%
    08:00 +18°C° 0 mm 0 mps 706 mmHg 58%
    09:00 +23°C° 0 mm 1 mps 706 mmHg 51%
    10:00 +25°C° 0 mm 1 mps 706 mmHg 44%
    11:00 +27°C° 0 mm 1 mps 706 mmHg 40%
    12:00 +28°C° 0 mm 1 mps 706 mmHg 36%
    13:00 +30°C° 0 mm 1 mps 705 mmHg 31%
    14:00 +30°C° 0 mm 1 mps 705 mmHg 31%
    15:00 +30°C° 0 mm 1 mps 705 mmHg 30%
    16:00 +30°C° 0 mm 1 mps 704 mmHg 29%
    17:00 +28°C° 0 mm 1 mps 704 mmHg 37%
    18:00 +26°C° 0 mm 1 mps 703 mmHg 46%
    19:00 +24°C° 0 mm 1 mps 703 mmHg 54%
    20:00 +22°C° 0 mm 1 mps 703 mmHg 57%
    21:00 +20°C° 0 mm 1 mps 703 mmHg 60%
    22:00 +19°C° 0 mm 1 mps 703 mmHg 63%
    23:00 +18°C° 0 mm 1 mps 703 mmHg 65%

    30 May, Saturday

    Time Temperature Precipitation Wind Pressure Humidity
    00:00 +18°C° 0 mm 1 mps 703 mmHg 66%
    01:00 +18°C° 0 mm 1 mps 703 mmHg 68%
    02:00 +16°C° 0 mm 1 mps 702 mmHg 69%
    03:00 +16°C° 0 mm 1 mps 702 mmHg 70%
    04:00 +16°C° 0 mm 1 mps 702 mmHg 71%
    05:00 +18°C° 0 mm 1 mps 701 mmHg 66%
    06:00 +20°C° 0 mm 1 mps 701 mmHg 61%
    07:00 +22°C° 0 mm 1 mps 701 mmHg 56%
    08:00 +24°C° 0 mm 1 mps 701 mmHg 51%
    09:00 +26°C° 0 mm 1 mps 700 mmHg 46%
    10:00 +28°C° 0 mm 2 mps 700 mmHg 41%
    11:00 +29°C° 0 mm 2 mps 699 mmHg 37%
    12:00 +31°C° 0 mm 2 mps 698 mmHg 33%
    13:00 +33°C° 0 mm 3 mps 698 mmHg 29%
    14:00 +33°C° 0 mm 3 mps 697 mmHg 30%
    15:00 +33°C° 0 mm 4 mps 696 mmHg 31%
    16:00 +33°C° 0 mm 4 mps 695 mmHg 32%
    17:00 +30°C° 0 mm 3 mps 694 mmHg 39%
    18:00 +28°C° 0 mm 2 mps 693 mmHg 46%
    19:00 +27°C° 0 mm 1 mps 692 mmHg 53%
    20:00 +24°C° 2.2 mm 1 mps 693 mmHg 67%
    21:00 +20°C° 2.2 mm 2 mps 694 mmHg 80%
    22:00 +18°C° 2.2 mm 2 mps 694 mmHg 94%
    23:00 +17°C° 0 mm 2 mps 695 mmHg 94%

    31 May, Sunday

    Time Temperature Precipitation Wind Pressure Humidity
    00:00 +17°C° 0 mm 2 mps 695 mmHg 95%
    01:00 +16°C° 0 mm 2 mps 695 mmHg 95%
    02:00 +16°C° 0.3 mm 2 mps 696 mmHg 95%
    03:00 +15°C° 0.3 mm 2 mps 696 mmHg 94%
    04:00 +14°C° 0.3 mm 3 mps 696 mmHg 93%
    05:00 +13°C° 0.1 mm 3 mps 697 mmHg 89%
    06:00 +12°C° 0.1 mm 3 mps 698 mmHg 85%
    07:00 +12°C° 0.1 mm 4 mps 698 mmHg 80%
    08:00 +13°C° 0 mm 4 mps 699 mmHg 71%
    09:00 +14°C° 0 mm 5 mps 700 mmHg 61%
    10:00 +15°C° 0 mm 5 mps 701 mmHg 51%
    11:00 +15°C° 0 mm 5 mps 702 mmHg 49%
    12:00 +17°C° 0 mm 4 mps 702 mmHg 47%
    13:00 +18°C° 0 mm 4 mps 702 mmHg 46%
    14:00 +18°C° 0 mm 4 mps 702 mmHg 45%
    15:00 +18°C° 0 mm 4 mps 702 mmHg 45%
    16:00 +18°C° 0 mm 4 mps 702 mmHg 45%
    17:00 +17°C° 0 mm 3 mps 703 mmHg 48%
    18:00 +16°C° 0 mm 3 mps 703 mmHg 52%
    19:00 +14°C° 0 mm 3 mps 703 mmHg 55%
    20:00 +13°C° 0 mm 2 mps 703 mmHg 61%
    21:00 +10°C° 0 mm 2 mps 703 mmHg 67%
    22:00 +9°C° 0 mm 1 mps 703 mmHg 73%
    23:00 +9°C° 0 mm 1 mps 703 mmHg 75%
    Show more